| time (UTC) | temp C | wind direction | speed KPH | gust KPH | rain 1hr cm | rain 24hr cm | rain mn cm | humidity % | barometer mb |
| 20260507201600 | 16 | 269 | 3.2 | 9.7 | 0.00 | 0.00 | 0.00 | 34 | 1002.5 |
| 20260507200052 | 16 | 313 | 1.6 | 11.3 | 0.00 | 0.00 | 0.00 | 35 | 1002.5 |
| 20260507194550 | 17 | 31 | 0.0 | 8.0 | 0.00 | 0.00 | 0.00 | 31 | 1002.7 |
| 20260507193043 | 17 | 22 | 1.6 | 11.3 | 0.00 | 0.00 | 0.00 | 31 | 1002.8 |
| 20260507191554 | 17 | 313 | 3.2 | 6.4 | 0.00 | 0.00 | 0.00 | 30 | 1002.9 |
| 20260507190041 | 17 | 201 | 0.0 | 9.7 | 0.00 | 0.00 | 0.00 | 29 | 1003.1 |
| 20260507184548 | 18 | 302 | 1.6 | 6.4 | 0.00 | 0.00 | 0.00 | 30 | 1003.2 |
| 20260507183044 | 18 | 84 | 1.6 | 12.9 | 0.00 | 0.00 | 0.00 | 33 | 1003.3 |
| 20260507181540 | 18 | 145 | 1.6 | 6.4 | 0.00 | 0.00 | 0.00 | 33 | 1003.4 |
| 20260507180038 | 18 | 32 | 1.6 | 6.4 | 0.00 | 0.00 | 0.00 | 33 | 1003.4 |
| 20260507174536 | 18 | 153 | 3.2 | 6.4 | 0.00 | 0.00 | 0.00 | 32 | 1003.5 |
| 20260507173034 | 18 | 205 | 3.2 | 6.4 | 0.00 | 0.00 | 0.00 | 32 | 1003.2 |
| 20260507171531 | 18 | 31 | 1.6 | 6.4 | 0.00 | 0.00 | 0.00 | 34 | 1003.4 |
| 20260507170028 | 17 | 329 | 3.2 | 12.9 | 0.00 | 0.00 | 0.00 | 36 | 1003.8 |
| 20260507164527 | 16 | 346 | 1.6 | 9.7 | 0.00 | 0.00 | 0.00 | 41 | 1004.0 |
| 20260507163024 | 16 | 195 | 3.2 | 9.7 | 0.00 | 0.00 | 0.00 | 42 | 1004.0 |
| 20260507161623 | 16 | 335 | 1.6 | 6.4 | 0.00 | 0.00 | 0.00 | 45 | 1004.2 |
| 20260507160029 | 17 | 41 | 1.6 | 9.7 | 0.00 | 0.00 | 0.00 | 50 | 1004.3 |
| 20260507154519 | 16 | 223 | 1.6 | 8.0 | 0.00 | 0.00 | 0.00 | 47 | 1004.4 |
| 20260507153015 | 15 | 252 | 0.0 | 4.8 | 0.00 | 0.00 | 0.00 | 52 | 1004.3 |
| 20260507151514 | 16 | 201 | 1.6 | 6.4 | 0.00 | 0.00 | 0.00 | 53 | 1004.5 |
| 20260507150013 | 15 | 340 | 0.0 | 8.0 | 0.00 | 0.00 | 0.00 | 59 | 1004.7 |
| 20260507144511 | 15 | 190 | 1.6 | 8.0 | 0.00 | 0.00 | 0.00 | 60 | 1004.8 |
| 20260507143017 | 15 | 190 | 0.0 | 4.8 | 0.00 | 0.00 | 0.00 | 61 | 1004.9 |
| 20260507141507 | 14 | 68 | 0.0 | 4.8 | 0.00 | 0.00 | 0.00 | 61 | 1004.9 |
| 20260507140006 | 14 | 159 | 3.2 | 8.0 | 0.00 | 0.00 | 0.00 | 63 | 1004.9 |
| 20260507134505 | 13 | 277 | 1.6 | 4.8 | 0.00 | 0.00 | 0.00 | 64 | 1004.9 |
| 20260507133003 | 13 | 115 | 0.0 | 4.8 | 0.00 | 0.00 | 0.00 | 67 | 1004.9 |
| 20260507131503 | 12 | 5 | 0.0 | 6.4 | 0.00 | 0.00 | 0.00 | 72 | 1005.2 |
| 20260507130059 | 12 | 340 | 1.6 | 4.8 | 0.00 | 0.00 | 0.00 | 77 | 1005.3 |
| 20260507124558 | 11 | 348 | 1.6 | 8.0 | 0.00 | 0.00 | 0.00 | 83 | 1005.4 |
| 20260507123111 | 10 | 12 | 0.0 | 3.2 | 0.00 | 0.00 | 0.00 | 89 | 1005.4 |
| 20260507121555 | 9 | 250 | 0.0 | 1.6 | 0.00 | 0.00 | 0.00 | 91 | 1005.5 |
| 20260507120054 | 9 | 121 | 0.0 | 3.2 | 0.00 | 0.00 | 0.00 | 92 | 1005.5 |
| 20260507114557 | 8 | 187 | 0.0 | 1.6 | 0.00 | 0.00 | 0.00 | 92 | 1005.4 |
| 20260507113052 | 8 | 187 | 0.0 | 0.0 | 0.00 | 0.00 | 0.00 | 92 | 1005.4 |
| 20260507111551 | 8 | 187 | 0.0 | 3.2 | 0.00 | 0.00 | 0.00 | 92 | 1005.3 |
| 20260507110052 | 8 | 188 | 0.0 | 0.0 | 0.00 | 0.00 | 0.00 | 92 | 1005.1 |
| 20260507104557 | 8 | 187 | 0.0 | 1.6 | 0.00 | 0.00 | 0.00 | 92 | 1005.3 |
| 20260507103047 | 8 | 187 | 0.0 | 0.0 | 0.00 | 0.00 | 0.00 | 92 | 1004.6 |
| 20260507101547 | 8 | 187 | 0.0 | 3.2 | 0.00 | 0.00 | 0.00 | 92 | 1004.6 |
| 20260507100054 | 8 | 140 | 0.0 | 1.6 | 0.00 | 0.00 | 0.00 | 91 | 1004.6 |
| 20260507094547 | 8 | 140 | 0.0 | 1.6 | 0.00 | 0.00 | 0.00 | 91 | 1004.2 |
| 20260507093043 | 8 | 140 | 0.0 | 3.2 | 0.00 | 0.00 | 0.00 | 91 | 1004.5 |
| 20260507091542 | 8 | 236 | 0.0 | 1.6 | 0.00 | 0.00 | 0.00 | 91 | 1004.5 |
| 20260507090049 | 9 | 236 | 0.0 | 1.6 | 0.00 | 0.00 | 0.00 | 91 | 1005.1 |
| 20260507084545 | 9 | 250 | 0.0 | 6.4 | 0.00 | 0.00 | 0.00 | 92 | 1004.8 |
| 20260507083035 | 10 | 237 | 0.0 | 0.0 | 0.00 | 0.00 | 0.00 | 92 | 1004.6 |
| 20260507081533 | 10 | 237 | 0.0 | 0.0 | 0.00 | 0.00 | 0.00 | 92 | 1004.3 |
| 20260507080030 | 10 | 237 | 0.0 | 3.2 | 0.00 | 0.00 | 0.00 | 92 | 1004.3 |
| 20260507074528 | 10 | 238 | 0.0 | 3.2 | 0.00 | 0.00 | 0.00 | 92 | 1004.6 |
| 20260507073027 | 10 | 275 | 0.0 | 3.2 | 0.00 | 0.00 | 0.00 | 92 | 1004.6 |
| 20260507071528 | 10 | 326 | 0.0 | 3.2 | 0.00 | 0.00 | 0.00 | 92 | 1003.8 |
| 20260507070023 | 11 | 337 | 0.0 | 0.0 | 0.00 | 0.00 | 0.00 | 92 | 1003.8 |
| 20260507064533 | 11 | 337 | 0.0 | 0.0 | 0.00 | 0.00 | 0.00 | 92 | 1003.5 |
| 20260507063020 | 11 | 337 | 0.0 | 0.0 | 0.00 | 0.00 | 0.00 | 92 | 1003.7 |
| 20260507061517 | 11 | 337 | 0.0 | 0.0 | 0.00 | 0.00 | 0.00 | 92 | 1003.7 |
| 20260507060014 | 11 | 337 | 0.0 | 3.2 | 0.00 | 0.00 | 0.00 | 92 | 1003.7 |
| 20260507054511 | 12 | 304 | 0.0 | 1.6 | 0.00 | 0.00 | 0.00 | 92 | 1003.7 |
| 20260507053009 | 12 | 279 | 0.0 | 1.6 | 0.00 | 0.00 | 0.00 | 93 | 1004.0 |
| 20260507051508 | 12 | 224 | 0.0 | 1.6 | 0.00 | 0.00 | 0.00 | 92 | 1004.1 |
| 20260507050107 | 12 | 224 | 0.0 | 1.6 | 0.00 | 0.00 | 0.00 | 93 | 1004.0 |
| 20260507044503 | 13 | 250 | 0.0 | 1.6 | 0.00 | 0.00 | 0.00 | 93 | 1004.1 |
| 20260507043100 | 13 | 226 | 0.0 | 3.2 | 0.00 | 0.00 | 0.00 | 93 | 1003.8 |
| 20260507041559 | 13 | 5 | 0.0 | 3.2 | 0.00 | 0.00 | 0.00 | 93 | 1003.8 |
| 20260507040054 | 14 | 242 | 0.0 | 4.8 | 0.00 | 0.00 | 0.00 | 93 | 1003.9 |
| 20260507034554 | 14 | 152 | 0.0 | 3.2 | 0.00 | 0.00 | 0.00 | 93 | 1003.6 |
| 20260507033052 | 14 | 299 | 0.0 | 3.2 | 0.00 | 0.00 | 0.00 | 93 | 1003.2 |
| 20260507031552 | 14 | 174 | 0.0 | 3.2 | 0.00 | 0.00 | 0.00 | 93 | 1003.1 |
| 20260507030052 | 14 | 174 | 0.0 | 4.8 | 0.00 | 0.00 | 0.00 | 93 | 1002.8 |
| 20260507024551 | 14 | 62 | 0.0 | 3.2 | 0.00 | 0.00 | 0.00 | 93 | 1002.8 |
| 20260507023049 | 14 | 177 | 1.6 | 12.9 | 0.00 | 0.00 | 0.00 | 93 | 1002.7 |
| 20260507021549 | 14 | 231 | 1.6 | 6.4 | 0.00 | 0.00 | 0.00 | 93 | 1002.7 |
| 20260507014554 | 14 | 190 | 1.6 | 6.4 | 0.00 | 0.00 | 0.00 | 93 | 1002.7 |
| 20260507013047 | 14 | 119 | 1.6 | 8.0 | 0.00 | 0.00 | 0.00 | 93 | 1002.7 |
| 20260507011547 | 14 | 133 | 3.2 | 8.0 | 0.00 | 0.00 | 0.00 | 93 | 1002.7 |
| 20260507010059 | 14 | 311 | 0.0 | 12.9 | 0.00 | 0.00 | 0.00 | 92 | 1002.8 |
| 20260507004546 | 14 | 234 | 1.6 | 9.7 | 0.00 | 0.00 | 0.00 | 92 | 1002.8 |
| 20260507003044 | 15 | 241 | 1.6 | 11.3 | 0.00 | 0.00 | 0.00 | 92 | 1002.8 |
| 20260507001547 | 15 | 186 | 3.2 | 9.7 | 0.00 | 0.00 | 0.00 | 92 | 1002.6 |
| 20260507000043 | 15 | 207 | 3.2 | 11.3 | 0.00 | 0.00 | 0.00 | 92 | 1002.6 |
| 20260506234542 | 15 | 182 | 0.0 | 8.0 | 0.00 | 0.00 | 0.00 | 92 | 1002.5 |
| 20260506233041 | 15 | 217 | 4.8 | 11.3 | 0.00 | 0.00 | 0.00 | 92 | 1002.4 |
| 20260506231555 | 15 | 194 | 0.0 | 8.0 | 0.00 | 0.00 | 0.00 | 92 | 1002.3 |
| 20260506230053 | 15 | 185 | 4.8 | 11.3 | 0.00 | 0.00 | 0.00 | 91 | 1002.5 |
| 20260506224540 | 15 | 194 | 1.6 | 8.0 | 0.00 | 0.00 | 0.00 | 91 | 1002.6 |
| 20260506223038 | 15 | 200 | 1.6 | 14.5 | 0.00 | 0.00 | 0.00 | 91 | 1002.6 |
| 20260506221540 | 15 | 119 | 3.2 | 16.1 | 0.00 | 0.00 | 0.00 | 91 | 1002.7 |
| 20260506220038 | 15 | 165 | 4.8 | 16.1 | 0.00 | 0.00 | 0.00 | 91 | 1002.8 |
| 20260506214537 | 15 | 162 | 1.6 | 12.9 | 0.00 | 0.00 | 0.00 | 91 | 1002.9 |
| 20260506213033 | 15 | 201 | 4.8 | 12.9 | 0.00 | 0.00 | 0.00 | 90 | 1003.1 |
| 20260506211533 | 15 | 128 | 1.6 | 11.3 | 0.00 | 0.00 | 0.00 | 90 | 1003.4 |
| 20260506210031 | 15 | 41 | 3.2 | 19.3 | 0.00 | 0.00 | 0.00 | 89 | 1003.4 |
| 20260506204533 | 15 | 229 | 3.2 | 14.5 | 0.00 | 0.00 | 0.00 | 89 | 1003.5 |
| 20260506203025 | 16 | 70 | 1.6 | 8.0 | 0.00 | 0.00 | 0.00 | 88 | 1003.6 |